User: anonymous   Login
Location: Unspecified
(0.0000°N, 0.0000°E)
Time: 05:00:38
(UTC+00:00)
Language:

PLEIADES HR1 - Orbit

View from above orbital plane
View from above orbital plane
View from above satellite
View from above satellite

Ground track
Ground track

The orbit data is extracted from the following two-line orbital elements,

1 38012U 11076F   14332.87123215  .00000772  00000-0  17589-3 0  3051
2 38012 098.1822 045.4673 0001290 075.5352 284.5977 14.58569216157107
Epoch (UTC): 28 November 2014 20:54:34
Eccentricity: 0.0001290
inclination: 98.1822°
perigee height: 697 km
apogee height: 699 km
right ascension of ascending node: 45.4673°
argument of perigee: 75.5352°
revolutions per day: 14.58569216
mean anomaly at epoch: 284.5977°
orbit number at epoch: 15710

The dashed part of the orbit path shows where the satellite is in the earth's shadow,  

DLR